• In Uzbekistan
  • List of Countries
  • For 7 days
  • Water Temperature
  • Weather Map
  • Weather Widgets
  • user-avatar
    Login

    Hourly Weather Shusha

    Today, 19 November, Tuesday

    Time Temperature Precipitation Wind Pressure Humidity
    00:00 +3°C° 0 mm 0 mps 664 mmHg 61%
    01:00 +2°C° 0 mm 0 mps 664 mmHg 63%
    02:00 +2°C° 0 mm 0 mps 664 mmHg 64%
    03:00 +2°C° 0 mm 0 mps 663 mmHg 69%
    04:00 +2°C° 0 mm 0 mps 663 mmHg 72%
    05:00 +3°C° 0 mm 1 mps 663 mmHg 75%
    06:00 +3°C° 0 mm 1 mps 663 mmHg 78%
    07:00 +3°C° 0 mm 1 mps 664 mmHg 74%
    08:00 +4°C° 0 mm 1 mps 664 mmHg 70%
    09:00 +5°C° 0 mm 1 mps 664 mmHg 65%
    10:00 +6°C° 0 mm 1 mps 664 mmHg 61%
    11:00 +7°C° 0 mm 1 mps 664 mmHg 57%
    12:00 +8°C° 0 mm 1 mps 664 mmHg 53%
    13:00 +8°C° 0 mm 1 mps 663 mmHg 52%
    14:00 +8°C° 0 mm 1 mps 663 mmHg 51%
    15:00 +9°C° 0 mm 1 mps 663 mmHg 49%
    16:00 +7°C° 0 mm 1 mps 663 mmHg 56%
    17:00 +6°C° 0 mm 1 mps 663 mmHg 63%
    18:00 +5°C° 0 mm 1 mps 663 mmHg 70%
    19:00 +5°C° 0 mm 1 mps 663 mmHg 71%
    20:00 +4°C° 0 mm 1 mps 663 mmHg 72%
    21:00 +4°C° 0 mm 1 mps 663 mmHg 72%
    22:00 +4°C° 0 mm 1 mps 662 mmHg 72%
    23:00 +4°C° 0 mm 1 mps 662 mmHg 71%

    Tomorrow, 20 November, Wednesday

    Time Temperature Precipitation Wind Pressure Humidity
    00:00 +3°C° 0 mm 2 mps 662 mmHg 70%
    01:00 +4°C° 0 mm 1 mps 662 mmHg 67%
    02:00 +3°C° 0 mm 1 mps 662 mmHg 64%
    03:00 +3°C° 0 mm 1 mps 662 mmHg 61%
    04:00 +3°C° 0 mm 1 mps 662 mmHg 60%
    05:00 +3°C° 0 mm 1 mps 662 mmHg 58%
    06:00 +3°C° 0 mm 1 mps 662 mmHg 57%
    07:00 +4°C° 0 mm 1 mps 662 mmHg 53%
    08:00 +6°C° 0 mm 1 mps 663 mmHg 49%
    09:00 +6°C° 0 mm 0 mps 663 mmHg 45%
    10:00 +8°C° 0 mm 1 mps 663 mmHg 43%
    11:00 +9°C° 0 mm 1 mps 663 mmHg 41%
    12:00 +9°C° 0 mm 2 mps 663 mmHg 40%
    13:00 +9°C° 0 mm 2 mps 662 mmHg 42%
    14:00 +8°C° 0 mm 2 mps 662 mmHg 45%
    15:00 +8°C° 0 mm 2 mps 661 mmHg 47%
    16:00 +7°C° 0 mm 1 mps 661 mmHg 55%
    17:00 +6°C° 0 mm 1 mps 661 mmHg 63%
    18:00 +3°C° 0 mm 0 mps 661 mmHg 71%
    19:00 +3°C° 0 mm 0 mps 661 mmHg 75%
    20:00 +3°C° 0 mm 1 mps 661 mmHg 79%
    21:00 +3°C° 0 mm 1 mps 661 mmHg 83%
    22:00 +3°C° 0 mm 1 mps 661 mmHg 85%
    23:00 +2°C° 0 mm 1 mps 661 mmHg 87%

    Day after tomorrow, 21 November, Thursday

    Time Temperature Precipitation Wind Pressure Humidity
    00:00 +2°C° 0 mm 1 mps 661 mmHg 90%
    01:00 +2°C° 0 mm 1 mps 660 mmHg 90%
    02:00 +2°C° 0 mm 1 mps 660 mmHg 91%
    03:00 +2°C° 0 mm 1 mps 660 mmHg 92%
    04:00 +2°C° 0 mm 1 mps 661 mmHg 92%
    05:00 +2°C° 0 mm 1 mps 661 mmHg 92%
    06:00 +2°C° 0 mm 1 mps 661 mmHg 92%
    07:00 +2°C° 0.1 mm 1 mps 661 mmHg 92%
    08:00 +1°C° 0.1 mm 2 mps 661 mmHg 92%
    09:00 +1°C° 0.1 mm 2 mps 662 mmHg 92%
    10:00 +1°C° 0.1 mm 2 mps 661 mmHg 91%
    11:00 +1°C° 0.1 mm 2 mps 661 mmHg 90%
    12:00 +1°C° 0.1 mm 2 mps 661 mmHg 90%
    13:00 +1°C° 0.1 mm 2 mps 661 mmHg 91%
    14:00 +1°C° 0.1 mm 2 mps 661 mmHg 91%
    15:00 +1°C° 0.1 mm 2 mps 661 mmHg 92%
    16:00 +1°C° 0.3 mm 2 mps 661 mmHg 93%
    17:00 -1°C° 0.3 mm 2 mps 661 mmHg 94%
    18:00 +1°C° 0.3 mm 1 mps 662 mmHg 95%
    19:00 +1°C° 0.5 mm 1 mps 662 mmHg 95%
    20:00 +1°C° 0.5 mm 1 mps 662 mmHg 96%
    21:00 +1°C° 0.5 mm 1 mps 663 mmHg 96%
    22:00 0°C° 0.5 mm 1 mps 663 mmHg 96%
    23:00 -2°C° 0.5 mm 2 mps 663 mmHg 96%

    22 November, Friday

    Time Temperature Precipitation Wind Pressure Humidity
    00:00 -2°C° 0.5 mm 2 mps 663 mmHg 96%
    01:00 -2°C° 0.3 mm 2 mps 663 mmHg 96%
    02:00 -3°C° 0.3 mm 2 mps 663 mmHg 96%
    03:00 -3°C° 0.3 mm 2 mps 663 mmHg 96%
    04:00 -1°C° 0.3 mm 1 mps 664 mmHg 96%
    05:00 -1°C° 0.3 mm 1 mps 664 mmHg 96%
    06:00 -1°C° 0.3 mm 1 mps 664 mmHg 96%
    07:00 -1°C° 0.3 mm 1 mps 665 mmHg 95%
    08:00 -1°C° 0.3 mm 1 mps 665 mmHg 94%
    09:00 -1°C° 0.3 mm 1 mps 665 mmHg 93%
    10:00 -2°C° 0.2 mm 2 mps 665 mmHg 92%
    11:00 -2°C° 0.2 mm 2 mps 665 mmHg 91%
    12:00 -2°C° 0.2 mm 2 mps 665 mmHg 90%
    13:00 -2°C° 0.2 mm 2 mps 665 mmHg 91%
    14:00 -2°C° 0.2 mm 2 mps 665 mmHg 91%
    15:00 -2°C° 0.2 mm 2 mps 665 mmHg 92%
    16:00 0°C° 0.2 mm 1 mps 665 mmHg 93%
    17:00 -1°C° 0.2 mm 1 mps 665 mmHg 95%
    18:00 -1°C° 0.2 mm 1 mps 665 mmHg 96%
    19:00 -1°C° 0.2 mm 1 mps 666 mmHg 96%
    20:00 -1°C° 0.2 mm 1 mps 666 mmHg 96%
    21:00 -2°C° 0.2 mm 1 mps 666 mmHg 96%
    22:00 -2°C° 0.1 mm 1 mps 666 mmHg 95%
    23:00 -2°C° 0.1 mm 1 mps 666 mmHg 95%

    23 November, Saturday

    Time Temperature Precipitation Wind Pressure Humidity
    00:00 -2°C° 0.1 mm 1 mps 666 mmHg 94%
    01:00 -3°C° 0.1 mm 1 mps 666 mmHg 94%
    02:00 -3°C° 0.1 mm 1 mps 665 mmHg 94%
    03:00 -3°C° 0.1 mm 1 mps 665 mmHg 93%
    04:00 -3°C° 0.1 mm 1 mps 665 mmHg 93%
    05:00 -3°C° 0.1 mm 1 mps 665 mmHg 93%
    06:00 -3°C° 0.1 mm 1 mps 665 mmHg 92%
    07:00 -2°C° 0 mm 1 mps 666 mmHg 91%
    08:00 -3°C° 0 mm 0 mps 666 mmHg 89%
    09:00 -2°C° 0 mm 0 mps 666 mmHg 87%
    10:00 -1°C° 0 mm 1 mps 666 mmHg 87%
    11:00 0°C° 0 mm 1 mps 666 mmHg 87%
    12:00 0°C° 0 mm 1 mps 666 mmHg 86%
    13:00 0°C° 0 mm 1 mps 665 mmHg 88%
    14:00 0°C° 0 mm 1 mps 665 mmHg 89%
    15:00 0°C° 0 mm 1 mps 665 mmHg 91%
    16:00 -1°C° 0 mm 1 mps 665 mmHg 92%
    17:00 -1°C° 0 mm 1 mps 665 mmHg 94%
    18:00 -1°C° 0 mm 1 mps 665 mmHg 95%
    19:00 -1°C° 0 mm 1 mps 665 mmHg 95%
    20:00 -2°C° 0 mm 0 mps 665 mmHg 94%
    21:00 -3°C° 0 mm 0 mps 665 mmHg 94%
    22:00 -3°C° 0 mm 0 mps 664 mmHg 93%
    23:00 -3°C° 0 mm 0 mps 664 mmHg 93%

    24 November, Sunday

    Time Temperature Precipitation Wind Pressure Humidity
    00:00 -4°C° 0 mm 0 mps 664 mmHg 92%
    01:00 -4°C° 0 mm 0 mps 664 mmHg 91%
    02:00 -4°C° 0 mm 0 mps 663 mmHg 90%
    03:00 -5°C° 0 mm 0 mps 663 mmHg 89%
    04:00 -5°C° 0 mm 0 mps 663 mmHg 89%
    05:00 -5°C° 0 mm 0 mps 663 mmHg 88%
    06:00 -5°C° 0 mm 0 mps 663 mmHg 87%
    07:00 -4°C° 0 mm 0 mps 663 mmHg 83%
    08:00 -3°C° 0 mm 0 mps 664 mmHg 79%
    09:00 -1°C° 0 mm 0 mps 664 mmHg 75%
    10:00 -1°C° 0 mm 0 mps 664 mmHg 74%
    11:00 +1°C° 0 mm 1 mps 664 mmHg 73%
    12:00 +2°C° 0 mm 1 mps 663 mmHg 73%
    13:00 +2°C° 0 mm 1 mps 663 mmHg 74%
    14:00 +2°C° 0 mm 1 mps 663 mmHg 75%
    15:00 +2°C° 0 mm 1 mps 663 mmHg 77%
    16:00 +1°C° 0 mm 1 mps 663 mmHg 80%
    17:00 -1°C° 0 mm 0 mps 663 mmHg 84%
    18:00 -2°C° 0 mm 0 mps 663 mmHg 88%
    19:00 -2°C° 0 mm 0 mps 663 mmHg 87%
    20:00 -2°C° 0 mm 0 mps 663 mmHg 87%
    21:00 -3°C° 0 mm 0 mps 662 mmHg 87%
    22:00 -3°C° 0 mm 0 mps 662 mmHg 86%
    23:00 -3°C° 0 mm 0 mps 662 mmHg 86%
    Show more